Annette Island, AK

10:42 PM AKDT on May 28, 2017 (GMT -0800)
Annette Island

Weather History for PANT - November, 2013

Change the Weather History Date:

Saturday, November 23, 2013

  Actual Average Record
Temperature  
Mean Temperature 43 °F 39 °F  
Max Temperature 44 °F 43 °F 53 °F (2005)
Min Temperature 41 °F 34 °F 0 °F (1995)
Degree Days  
Heating Degree Days 22 26  
Month to date heating degree days 592 563  
Since 1 July heating degree days 1666 1863  
Cooling Degree Days 0    
Month to date cooling degree days 0  
Year to date cooling degree days 22  
Moisture  
Dew Point 41 °F    
Average Humidity 0    
Maximum Humidity 0    
Minimum Humidity 0    
Precipitation  
Precipitation 1.03 in 0.39 in 2.67 in (1957)
Month to date precipitation 8.83 9.62  
Year to date precipitation 76.64 88.24  
Snow  
Snow 0.00 in 0.20 in 7.00 in (1973)
Month to date snowfall 5.7 2.4  
Since 1 July snowfall 5.7 2.5  
Since 1 September snowfall 5.7 2.5  
Snow Depth 0.00 in    
Sea Level Pressure  
Sea Level Pressure 30.11 in    
Wind  
Wind Speed 14 mph (SSE)    
Max Wind Speed 35 mph    
Max Gust Speed 47 mph    
Visibility 7 miles    
Events Rain    
T = Trace of Precipitation, MM = Missing Value Source: NWS Daily Summary

Daily Weather History Graph

Daily Weather History Graph

Search for Another Location

Airport or City:

Trip Planner

Search our weather history database for the weather conditions in past years. The results will help you decide how hot, cold, wet, or windy it might be!

Date:

Astronomy

Nov. 23, 2013 Rise Set
Actual Time 7:34 AM AKST 3:30 PM AKST
Civil Twilight 6:51 AM AKST 4:13 PM AKST
Nautical Twilight 6:06 AM AKST 4:58 PM AKST
Astronomical Twilight 5:23 AM AKST 5:42 PM AKST
Moon 9:30 PM AKST (11/23) 11:33 AM AKST (11/23)
Length of Visible Light 9h 21m
Length of Day
7h 56m
Waning Gibbous, 68% of the Moon is Illuminated
Nov 23
Waning Gibbous
Nov 25
Last Quarter
Dec 2
New
Dec 9
First Quarter
Dec 17
Full

Hourly Weather History & Observations

Time (AKST) Temp. Windchill Dew Point Humidity Pressure Visibility Wind Dir Wind Speed Gust Speed Precip Events Conditions
12:53 AM 42.1 °F 31.9 °F 37.9 °F 85% 30.04 in 6.0 mi ESE 26.5 mph 35.7 mph 0.06 in Rain Rain
1:20 AM 42.1 °F 32.3 °F 37.0 °F 82% 30.03 in 6.0 mi SE 24.2 mph 46.0 mph 0.03 in Rain Rain
1:53 AM 42.1 °F 32.3 °F 39.0 °F 89% 30.04 in 5.0 mi SE 24.2 mph 38.0 mph 0.09 in Rain Rain
2:53 AM 43.0 °F 32.4 °F 39.0 °F 86% 30.02 in 6.0 mi SE 31.1 mph 44.9 mph 0.15 in Rain Rain
3:53 AM 42.1 °F 31.5 °F 39.0 °F 89% 30.02 in 5.0 mi SE 28.8 mph 47.2 mph 0.11 in Rain Rain
4:53 AM 42.1 °F 32.8 °F 39.9 °F 92% 30.03 in 4.0 mi SE 21.9 mph 38.0 mph 0.13 in Rain Light Rain
5:53 AM 43.0 °F 33.8 °F 41.0 °F 93% 30.01 in 5.0 mi SE 23.0 mph 32.2 mph 0.08 in Rain Light Rain
6:05 AM 43.0 °F 34.5 °F 41.0 °F 93% 30.01 in 4.0 mi SE 19.6 mph 32.2 mph 0.03 in Rain Light Rain
6:20 AM 43.0 °F 34.5 °F 42.1 °F 97% 30.01 in 3.0 mi SE 19.6 mph 33.4 mph 0.05 in Rain Rain
6:53 AM 43.0 °F 34.2 °F 42.1 °F 97% 30.02 in 8.0 mi SE 20.7 mph 32.2 mph 0.09 in Rain Light Rain
7:53 AM 44.1 °F 35.9 °F 42.1 °F 93% 30.04 in 8.0 mi SSE 19.6 mph 33.4 mph 0.04 in Rain Light Rain
8:53 AM 44.1 °F 36.2 °F 42.1 °F 93% 30.06 in 4.0 mi SSE 18.4 mph 29.9 mph 0.02 in Rain Light Rain
9:31 AM 43.0 °F 33.8 °F 41.0 °F 93% 30.07 in 4.0 mi SSE 23.0 mph 34.5 mph 0.01 in Rain Light Rain
9:53 AM 43.0 °F 34.8 °F 42.1 °F 97% 30.09 in 5.0 mi SSE 18.4 mph 33.4 mph 0.02 in Rain Light Rain
10:53 AM 43.0 °F 35.1 °F 41.0 °F 93% 30.09 in 7.0 mi South 17.3 mph 34.5 mph 0.00 in Rain Light Rain
11:53 AM 44.1 °F 37.7 °F 42.1 °F 93% 30.11 in 4.0 mi SSE 12.7 mph 21.9 mph 0.03 in Rain Light Rain
12:02 PM 44.1 °F 36.8 °F 42.1 °F 93% 30.10 in 4.0 mi SSE 16.1 mph 26.5 mph 0.01 in Rain Light Rain
12:53 PM 43.0 °F 36.0 °F 42.1 °F 97% 30.13 in 8.0 mi SSE 13.8 mph 23.0 mph 0.02 in Rain Light Rain
1:31 PM 44.1 °F 38.1 °F 42.1 °F 93% 30.12 in 10.0 mi South 11.5 mph 20.7 mph 0.00 in Rain Light Rain
1:49 PM 42.8 °F 36.6 °F 42.8 °F 100% 30.12 in 4.0 mi SSE 11.5 mph 21.9 mph 0.02 in Rain Light Rain
1:53 PM 43.0 °F 38.2 °F 42.1 °F 97% 30.13 in 4.0 mi South 8.1 mph 21.9 mph 0.03 in Rain Light Rain
2:53 PM 44.1 °F 39.0 °F 43.0 °F 96% 30.16 in 9.0 mi SSE 9.2 mph 20.7 mph 0.01 in Rain Light Rain
3:53 PM 44.1 °F 39.0 °F 43.0 °F 96% 30.17 in 10.0 mi South 9.2 mph - 0.01 in Rain Light Rain
4:53 PM 44.1 °F 40.1 °F 44.1 °F 100% 30.18 in 5.0 mi Variable 6.9 mph - 0.07 in Rain Light Rain
5:53 PM 44.1 °F 39.0 °F 44.1 °F 100% 30.17 in 7.0 mi South 9.2 mph - 0.03 in Rain Light Rain
6:53 PM 44.1 °F 39.0 °F 44.1 °F 100% 30.18 in 5.0 mi South 9.2 mph - 0.01 in Rain Light Rain
7:53 PM 44.1 °F 40.8 °F 44.1 °F 100% 30.19 in 5.0 mi SSW 5.8 mph - 0.02 in Rain Light Rain
8:53 PM 42.1 °F 39.2 °F 42.1 °F 100% 30.20 in 10.0 mi Variable 4.6 mph - 0.01 in   Overcast
9:28 PM 42.1 °F 37.7 °F 42.1 °F 100% 30.20 in 10.0 mi NNW 6.9 mph - 0.00 in   Overcast
9:53 PM 42.1 °F 37.7 °F 42.1 °F 100% 30.20 in 10.0 mi NNW 6.9 mph - 0.00 in   Overcast
10:12 PM 41.0 °F 36.4 °F 41.0 °F 100% 30.20 in 8.0 mi NNW 6.9 mph - N/A   Overcast
10:53 PM 41.0 °F 35.8 °F 41.0 °F 100% 30.22 in 10.0 mi NNW 8.1 mph - N/A   Overcast
11:21 PM 41.0 °F 35.8 °F 41.0 °F 100% 30.21 in 10.0 mi NNW 8.1 mph - N/A   Overcast
11:48 PM 41.0 °F 35.8 °F 39.2 °F 93% 30.21 in 10.0 mi NNW 8.1 mph - N/A   Overcast
11:53 PM 41.0 °F 35.8 °F 39.9 °F 96% 30.22 in 10.0 mi NNW 8.1 mph - N/A   Overcast